Location: Township of Marena
(38.1747°N, 99.6798°W)
Time: 12:14:10
(UTC+00:00)

SJ-6F - Pass Details

Date: 26 October 2020
Orbit: 571 x 593 km, 97.8° (Epoch: 24 November)

Event Time Altitude Azimuth Distance (km) Brightness Sun altitude
Rises 11:07:01 0° 10° (N) 2,791 8.1 -22.6°
Reaches altitude 10° 11:09:10 10° 10° (N) 1,891 7.2 -22.2°
Maximum altitude 11:13:16 81° 284° (WNW) 591 4.2 -21.4°
Enters shadow 11:15:34 26° 199° (SSW) 1,167 5.8 -20.9°
